Albion Park Observation History
Time Wind Speed Temp Pressure Rel. Hum Rain
25/04:00pm ENE 11-14 kts 27.0°c 1005.2 hPa 72% 0.0mm
25/03:30pm ENE 12-15 kts 27.4°c 1005.5 hPa 72% 0.0mm
25/03:00pm ENE 13-16 kts 27.0°c 1005.9 hPa 73% 0.0mm
25/02:30pm ENE 13-15 kts 27.0°c 1006.2 hPa 75% 0.0mm
25/02:00pm NE 13-16 kts 27.1°c 1006.6 hPa 74% 0.0mm
25/01:30pm ENE 15-17 kts 27.1°c 1007.0 hPa 73% 0.0mm
25/01:00pm NE 15-18 kts 27.2°c 1007.3 hPa 72% 0.0mm
25/12:30pm NE 13-16 kts 27.3°c 1007.7 hPa 75% 0.0mm
25/12:00pm NE 13-15 kts 26.9°c 1008.0 hPa 75% 0.0mm
25/11:30am NE 11-13 kts 27.6°c 1008.2 hPa 74% 0.0mm
25/11:00am NE 9-11 kts 27.5°c 1008.4 hPa 73% 0.0mm
25/10:30am NE 6-9 kts 27.9°c 1008.5 hPa 70% 0.0mm
25/10:00am NE 5-7 kts 26.2°c 1008.8 hPa 76% 0.0mm
25/09:30am NE 4-5 kts 25.3°c 1009.1 hPa 83% 0.0mm
25/09:00am ENE 3-4 kts 25.3°c 1009.2 hPa 78% 0.0mm
25/08:30am CALM 0 kts 25.0°c 1009.2 hPa 79% 0.0mm
25/08:00am CALM 0-4 kts 24.3°c 1009.3 hPa 83% 0.0mm
25/07:30am CALM 0 kts 22.6°c 1009.2 hPa 91% 0.0mm
25/07:00am WSW 3 kts 21.3°c 1009.1 hPa 92% 0.0mm
25/06:30am W 4 kts 20.7°c 1008.9 hPa 94% 0.0mm
25/06:00am WSW 2-3 kts 20.7°c 1008.5 hPa 93% 0.0mm
25/05:30am WSW 2-3 kts 20.8°c 1008.3 hPa 94% 0.0mm
25/05:00am CALM 0 kts 20.9°c 1008.2 hPa 94% 0.0mm
25/04:30am SW 3 kts 20.8°c 1008.1 hPa 94% 0.0mm
25/04:00am CALM 0 kts 21.3°c 1008.1 hPa 91% 0.0mm
25/03:30am SW 1-3 kts 21.5°c 1008.3 hPa 90% 0.0mm
25/03:00am SSW 1-3 kts 21.5°c 1008.5 hPa 88% 0.0mm
25/02:30am SE 4 kts 22.1°c 1008.8 hPa 87% 0.0mm
25/02:00am S 4-5 kts 22.6°c 1009.0 hPa 84% 0.0mm
25/01:30am SSE 3-4 kts 23.4°c 1009.3 hPa 80% 0.0mm
25/01:00am ESE 5-6 kts 23.9°c 1009.4 hPa 80% 0.0mm
25/12:30am E 4-6 kts 23.5°c 1009.4 hPa 81% 0.0mm
25/12:00am WSW 2-4 kts 24.0°c 1009.5 hPa 78% 0.0mm
Time Wind Speed Temp Pressure Rel. Hum Rain
24/11:30pm S 3-4 kts 24.0°c 1009.6 hPa 74% 0.0mm
24/11:00pm W 4-6 kts 24.5°c 1009.9 hPa 72% 0.0mm
24/10:30pm ENE 4-6 kts 25.2°c 1010.2 hPa 68% 0.0mm
24/10:00pm E 5-7 kts 25.8°c 1010.2 hPa 72% 0.0mm
24/09:30pm ESE 5-7 kts 25.8°c 1009.9 hPa 56% 0.0mm
24/09:00pm ESE 5-8 kts 26.0°c 1009.6 hPa 62% 0.0mm
24/08:30pm ESE 6-9 kts 26.0°c 1009.2 hPa 68% 0.0mm
24/08:00pm E 6-7 kts 26.0°c 1008.8 hPa 70% 0.0mm
24/07:30pm ESE 5-7 kts 26.6°c 1008.6 hPa 66% 0.0mm
24/07:00pm ESE 7-11 kts 27.2°c 1008.0 hPa 62% 0.0mm
24/06:30pm ESE 5-7 kts 28.0°c 1008.3 hPa 66% 0.0mm
24/06:08pm ESE 5-8 kts 28.6°c 1008.1 hPa 63% 0.0mm
24/06:00pm E 5-8 kts 28.5°c 1007.8 hPa 64% 0.0mm
24/05:58pm E 5-8 kts 28.5°c 1007.7 hPa 64% 0.0mm
24/05:30pm E 8-12 kts 28.4°c 1007.7 hPa 64% 0.0mm
24/05:00pm ENE 9-12 kts 27.8°c 1007.9 hPa 65% 0.0mm
24/04:30pm ENE 11-16 kts 29.0°c 1008.1 hPa 62% 0.0mm
24/04:00pm NE 7-10 kts 31.1°c 1008.3 hPa 48% 0.0mm
24/03:30pm NE 6-8 kts 31.7°c 1008.6 hPa 59% 0.0mm
24/03:00pm ENE 10-13 kts 29.9°c 1008.9 hPa 60% 0.0mm
24/02:30pm ENE 13-16 kts 30.0°c 1009.4 hPa 67% 0.0mm
24/02:00pm ENE 13-17 kts 29.0°c 1009.5 hPa 66% 0.0mm
24/01:30pm ENE 14-17 kts 28.9°c 1009.9 hPa 68% 0.0mm
24/01:00pm ENE 13-17 kts 29.1°c 1010.2 hPa 68% 0.0mm
24/12:30pm NE 13-18 kts 29.5°c 1010.5 hPa 68% 0.0mm
24/12:00pm NE 11-15 kts 29.7°c 1010.7 hPa 68% 0.0mm
24/11:30am ENE 10-13 kts 29.5°c 1011.0 hPa 67% 0.0mm
24/11:00am NE 11-13 kts 29.2°c 1011.0 hPa 66% 0.0mm
24/10:30am NE 10-12 kts 28.4°c 1011.2 hPa 71% 0.0mm
24/10:00am NE 9-11 kts 28.3°c 1011.4 hPa 70% 0.0mm
24/09:30am ENE 9-10 kts 27.4°c 1011.6 hPa 75% 0.0mm
24/09:00am E 4-7 kts 26.9°c 1011.8 hPa 79% 0.0mm
24/08:30am CALM 0 kts 25.9°c 1011.8 hPa 80% 0.0mm
24/08:00am CALM 0 kts 23.5°c 1011.8 hPa 94% 0.0mm
24/07:30am CALM 0 kts 21.7°c 1011.6 hPa 100% 0.0mm
24/07:00am CALM 0 kts 20.3°c 1011.5 hPa 100% 0.0mm
24/06:30am W 1-3 kts 19.8°c 1011.4 hPa 100% 0.0mm
24/06:00am CALM 0 kts 19.6°c 1011.5 hPa 99% 0.0mm
24/05:30am CALM 0 kts 20.0°c 1011.4 hPa 99% 0.0mm
24/05:00am W 4 kts 20.3°c 1011.5 hPa 99% 0.0mm
24/04:30am W 5 kts 20.6°c 1011.5 hPa 99% 0.0mm
24/04:00am CALM 0 kts 20.7°c 1011.7 hPa 99% 0.0mm
24/03:30am WSW 2-3 kts 20.8°c 1011.8 hPa 99% 0.0mm
24/03:00am W 4-6 kts 20.9°c 1012.0 hPa 98% 0.0mm
24/02:34am W 4-5 kts 21.5°c 1012.2 hPa 96% 0.0mm
24/02:30am W 4-5 kts 21.5°c 1012.3 hPa 96% 0.0mm
24/02:00am WNW 4 kts 21.9°c 1012.6 hPa 95% 0.0mm
24/01:30am WSW 4-5 kts 22.2°c 1012.9 hPa 96% 0.0mm
24/01:00am WSW 3-5 kts 21.9°c 1012.8 hPa 96% 0.0mm
24/12:58am WSW 3-4 kts 21.9°c 1012.8 hPa 97% 0.0mm
24/12:30am W 4-5 kts 22.2°c 1012.9 hPa 95% 0.0mm
24/12:00am W 5-6 kts 22.5°c 1013.0 hPa 94% 0.0mm
Time Wind Speed Temp Pressure Rel. Hum Rain
23/11:30pm WSW 4-5 kts 23.2°c 1013.3 hPa 95% 0.0mm
23/11:09pm CALM 0 kts 23.8°c 1013.1 hPa 93% 0.0mm
23/11:00pm CALM 0 kts 23.9°c 1013.1 hPa 94% 0.0mm
23/10:47pm CALM 0 kts 23.7°c 1013.2 hPa 94% 0.0mm
23/10:30pm S 1-3 kts 23.6°c 1013.2 hPa 93% 0.0mm
23/10:00pm S 1-4 kts 23.9°c 1013.2 hPa 92% 0.0mm
23/09:30pm S 4-6 kts 24.2°c 1013.1 hPa 90% 0.0mm
23/09:15pm S 5-6 kts 24.5°c 1013.0 hPa 90% 0.0mm
23/09:00pm SSE 5-6 kts 24.6°c 1012.8 hPa 89% 0.0mm
23/08:30pm SE 4-6 kts 25.1°c 1012.6 hPa 87% 0.0mm
23/08:04pm ESE 5-7 kts 25.4°c 1012.3 hPa 85% 0.0mm
23/08:00pm ESE 5-7 kts 25.4°c 1012.2 hPa 85% 0.0mm
23/07:30pm ENE 7-10 kts 25.9°c 1012.0 hPa 82% 0.0mm
23/07:00pm NE 7-10 kts 26.6°c 1011.7 hPa 77% 0.0mm
23/06:30pm ENE 8-10 kts 27.0°c 1011.4 hPa 73% 0.0mm
23/06:00pm ENE 8-11 kts 27.0°c 1011.0 hPa 76% 0.0mm
23/05:30pm NE 9-12 kts 26.5°c 1010.7 hPa 75% 0.0mm
23/05:00pm ENE 10-13 kts 27.4°c 1010.8 hPa 73% 0.0mm
23/04:30pm NE 10-13 kts 26.7°c 1011.0 hPa 72% 0.0mm
23/04:00pm NE 11-14 kts 27.2°c 1011.0 hPa 69% 0.0mm
23/03:30pm NE 11-15 kts 27.2°c 1011.0 hPa 66% 0.0mm
23/03:00pm NE 11-13 kts 26.9°c 1011.2 hPa 63% 0.0mm
23/02:30pm NE 9-11 kts 27.2°c 1011.4 hPa 62% 0.0mm
23/02:00pm NE 10-13 kts 27.4°c 1011.6 hPa 61% 0.0mm
23/01:30pm NE 10-12 kts 27.1°c 1011.7 hPa 58% 0.0mm
23/01:00pm NE 9-11 kts 27.5°c 1012.0 hPa 57% 0.0mm
23/12:30pm NE 9-12 kts 27.9°c 1012.1 hPa 57% 0.0mm
23/12:00pm E 6-9 kts 27.5°c 1012.4 hPa 55% 0.0mm
23/11:30am ESE 7-10 kts 27.6°c 1012.5 hPa 54% 0.0mm
23/11:00am ESE 9-13 kts 26.9°c 1012.3 hPa 54% 0.0mm
23/10:30am ESE 8-11 kts 27.4°c 1012.3 hPa 54% 0.0mm
23/10:00am E 5-8 kts 27.5°c 1012.3 hPa 55% 0.0mm
23/09:30am SE 4-6 kts 26.5°c 1012.5 hPa 58% 0.0mm
23/09:00am SSE 5-7 kts 26.0°c 1012.5 hPa 59% 0.0mm
23/08:30am SE 5-7 kts 25.5°c 1012.4 hPa 64% 0.0mm
23/08:00am WSW 2-7 kts 25.2°c 1012.3 hPa 70% 0.0mm
23/07:30am WSW 3-5 kts 24.1°c 1012.1 hPa 80% 0.0mm
23/07:00am S 3-6 kts 22.6°c 1011.7 hPa 83% 0.0mm
23/06:30am SSE 4-7 kts 22.6°c 1011.2 hPa 86% 0.0mm
23/06:00am W 4-6 kts 20.6°c 1010.7 hPa 87% 0.0mm
23/05:30am SSW 7-10 kts 21.2°c 1010.3 hPa 99% 0.0mm
23/05:00am CALM 0-4 kts 18.9°c 1009.9 hPa 98% 0.0mm
23/04:30am SSW 3-5 kts 18.7°c 1009.7 hPa 96% 0.0mm
23/04:00am W 4 kts 19.3°c 1009.4 hPa 97% 0.0mm
23/03:30am WNW 1-4 kts 19.0°c 1009.0 hPa 96% 0.0mm
23/03:00am W 2-4 kts 19.2°c 1008.9 hPa 95% 0.0mm
23/02:30am CALM 0-3 kts 20.0°c 1008.9 hPa 94% 0.0mm
23/02:00am WSW 4-6 kts 20.5°c 1009.0 hPa 91% 0.0mm
23/01:30am W 5-6 kts 20.8°c 1009.2 hPa 92% 0.0mm
23/01:00am W 5-6 kts 21.2°c 1009.2 hPa 92% 0.0mm
23/12:30am W 5-6 kts 21.8°c 1009.1 hPa 88% 0.0mm
23/12:00am NNE 3-6 kts 24.1°c 1009.0 hPa 79% 0.0mm